contact:dominique.lefevre@mio.osupytheas.fr, maurice.libes@osupytheas.fr, didier.mallarino@osupytheas.fr
Project:EMSO http://www.emso-fr.org/EMSO-France
Depth: 2436.0 m
Title:EMSO Ligure Ouest : Data MII capteur AQUADOPP
Date,Latitude,Longitude,X_East,Y_North,Z_Up,Amplitude_X,Amplitude_Y,Amplitude_Z,Batterie,SoundSpeed,Heading,Pitch,Roll,Pressure,TIS,Speed,Direction
, degrees North, degrees East, m.s-1, m.s-1,m.s-1, 1, 1, 1, Volt, m.s-1, degree, degree, degree, dbar, degree_C, m.s-1, degree
2023-10-05T00:04:03,42.805,6.029,-0.015,0.013,-0.049,103.0,104.0,103.0,13.4,1505.2,356.9,-0.8,1.8,2471.574,13.29,0.019,310.9
2023-10-05T00:07:03,42.805,6.029,-0.001,0.004,-0.025,104.0,103.0,102.0,13.4,1505.2,342.2,-0.8,1.8,2471.538,13.29,0.004,346.0
2023-10-05T00:10:03,42.805,6.029,-0.007,0.018,-0.014,105.0,105.0,101.0,13.4,1505.2,334.3,-0.8,1.8,2471.545,13.29,0.019,338.8
2023-10-05T00:13:03,42.805,6.029,-0.029,0.032,-0.04,103.0,105.0,103.0,13.3,1505.2,327.5,-0.8,1.8,2471.548,13.29,0.043,317.8
2023-10-05T00:16:03,42.805,6.029,0.004,0.006,0.003,104.0,105.0,102.0,13.3,1505.2,346.9,-0.7,1.8,2471.541,13.29,0.007,33.7
2023-10-05T00:19:03,42.805,6.029,-0.019,0.021,-0.04,106.0,103.0,102.0,13.4,1505.2,336.9,-0.8,1.8,2471.52,13.29,0.028,317.9
2023-10-05T00:22:03,42.805,6.029,-0.002,0.012,-0.012,102.0,105.0,102.0,13.3,1505.2,355.6,-0.8,1.9,2471.555,13.29,0.012,350.5
2023-10-05T00:25:03,42.805,6.029,0.012,0.034,0.024,105.0,103.0,102.0,13.4,1505.2,338.8,-0.8,1.8,2471.505,13.29,0.036,19.4
2023-10-05T00:28:03,42.805,6.029,-0.02,0.005,-0.029,104.0,105.0,101.0,13.3,1505.2,337.4,-0.8,1.8,2471.501,13.29,0.02,284.0
2023-10-05T00:31:03,42.805,6.029,0.006,0.018,-0.022,103.0,104.0,103.0,13.3,1505.2,335.2,-0.7,1.8,2471.499,13.29,0.018,18.4
2023-10-05T00:34:03,42.805,6.029,-0.008,0.031,-0.024,106.0,104.0,101.0,13.4,1505.2,347.5,-0.7,1.8,2471.517,13.29,0.032,345.5
2023-10-05T00:37:03,42.805,6.029,0.017,0.026,-0.007,106.0,104.0,102.0,13.4,1505.2,350.0,-0.8,1.8,2471.518,13.29,0.031,33.2
2023-10-05T00:40:03,42.805,6.029,-0.009,0.026,-0.028,103.0,104.0,102.0,13.3,1505.2,351.5,-0.8,1.8,2471.493,13.29,0.027,340.9
2023-10-05T00:43:03,42.805,6.029,-0.004,0.035,-0.026,103.0,104.0,103.0,13.4,1505.2,349.4,-0.8,1.9,2471.521,13.29,0.035,353.5
2023-10-05T00:46:03,42.805,6.029,-0.008,0.019,-0.004,104.0,104.0,103.0,13.4,1505.2,343.9,-0.8,1.8,2471.465,13.29,0.02,337.2
2023-10-05T00:49:03,42.805,6.029,-0.018,0.033,-0.008,105.0,104.0,102.0,13.3,1505.2,335.7,-0.8,1.8,2471.475,13.29,0.037,331.4
2023-10-05T00:52:03,42.805,6.029,0.002,-0.004,-0.001,104.0,104.0,103.0,13.4,1505.2,335.2,-0.8,1.8,2471.464,13.29,0.004,153.4
2023-10-05T00:55:03,42.805,6.029,-0.029,0.01,-0.035,105.0,103.0,103.0,13.4,1505.2,355.9,-0.8,1.8,2471.484,13.29,0.03,289.0
2023-10-05T00:58:03,42.805,6.029,0.006,0.025,-0.023,103.0,106.0,102.0,13.4,1505.2,354.9,-0.8,1.8,2471.488,13.29,0.025,13.5
2023-10-05T01:04:03,42.805,6.029,0.007,0.042,0.007,105.0,105.0,103.0,13.3,1505.2,356.0,-0.7,1.8,2471.553,13.29,0.042,9.5
2023-10-05T01:07:03,42.805,6.029,0.0,0.034,0.0,104.0,104.0,103.0,13.4,1505.2,351.8,-0.8,1.8,2471.547,13.29,0.034,0.0
2023-10-05T01:10:03,42.805,6.029,-0.001,0.009,-0.02,105.0,103.0,102.0,13.4,1505.2,337.8,-0.7,1.8,2471.542,13.29,0.009,353.7
2023-10-05T01:13:03,42.805,6.029,0.006,0.017,0.005,103.0,104.0,102.0,13.4,1505.2,340.9,-0.8,1.8,2471.461,13.29,0.018,19.4
2023-10-05T01:16:03,42.805,6.029,-0.002,0.016,-0.035,104.0,105.0,102.0,13.4,1505.2,337.5,-0.8,1.8,2471.508,13.29,0.016,352.9
2023-10-05T01:19:03,42.805,6.029,-0.008,0.016,-0.029,104.0,104.0,103.0,13.4,1505.2,349.4,-0.8,1.8,2471.494,13.29,0.017,333.4
2023-10-05T01:22:03,42.805,6.029,-0.002,0.018,0.011,104.0,104.0,102.0,13.3,1505.2,345.5,-0.8,1.8,2471.484,13.29,0.018,353.7
2023-10-05T01:25:03,42.805,6.029,0.005,0.018,-0.001,103.0,103.0,102.0,13.4,1505.2,337.1,-0.8,1.8,2471.489,13.29,0.018,15.5
2023-10-05T01:28:03,42.805,6.029,-0.001,0.019,0.008,105.0,104.0,102.0,13.4,1505.2,341.2,-0.8,1.8,2471.486,13.29,0.019,357.0
2023-10-05T01:31:03,42.805,6.029,-0.02,0.028,-0.039,103.0,104.0,103.0,13.3,1505.2,339.6,-0.8,1.8,2471.478,13.29,0.034,324.5
2023-10-05T01:34:03,42.805,6.029,0.006,0.034,0.012,103.0,105.0,101.0,13.3,1505.2,347.9,-0.7,1.8,2471.504,13.29,0.034,10.0
2023-10-05T01:37:03,42.805,6.029,-0.002,-0.003,-0.02,104.0,103.0,102.0,13.3,1505.2,356.8,-0.7,1.8,2471.484,13.29,0.003,213.7
2023-10-05T01:40:03,42.805,6.029,-0.011,0.017,-0.015,104.0,104.0,102.0,13.4,1505.2,329.6,-0.8,1.8,2471.494,13.29,0.02,327.1
2023-10-05T01:43:03,42.805,6.029,0.0,0.028,0.004,104.0,104.0,103.0,13.3,1505.2,345.4,-0.8,1.8,2471.467,13.29,0.028,0.0
2023-10-05T01:46:03,42.805,6.029,0.002,0.016,-0.027,105.0,104.0,102.0,13.3,1505.2,341.9,-0.8,1.8,2471.468,13.29,0.016,7.1
2023-10-05T01:49:03,42.805,6.029,0.02,0.039,0.014,103.0,105.0,102.0,13.4,1505.2,352.1,-0.8,1.8,2471.455,13.29,0.043,27.1
2023-10-05T01:52:03,42.805,6.029,0.007,0.023,0.015,103.0,104.0,103.0,13.4,1505.2,354.9,-0.8,1.8,2471.473,13.29,0.024,16.9
2023-10-05T01:55:03,42.805,6.029,-0.021,0.03,-0.007,104.0,104.0,101.0,13.4,1505.2,334.6,-0.8,1.8,2471.447,13.29,0.036,325.0
2023-10-05T01:58:03,42.805,6.029,-0.014,0.009,-0.008,105.0,104.0,102.0,13.4,1505.2,329.6,-0.8,1.8,2471.496,13.29,0.016,302.7
2023-10-05T02:04:03,42.805,6.029,-0.028,0.024,-0.047,105.0,104.0,102.0,13.4,1505.2,347.6,-0.8,1.8,2471.476,13.29,0.036,310.6
2023-10-05T02:07:03,42.805,6.029,-0.001,0.036,0.034,104.0,104.0,101.0,13.4,1505.2,342.2,-0.7,1.8,2471.511,13.29,0.036,358.4
2023-10-05T02:10:03,42.805,6.029,-0.012,-0.005,-0.026,104.0,105.0,102.0,13.4,1505.2,327.9,-0.8,1.9,2471.511,13.29,0.013,247.4
2023-10-05T02:13:03,42.805,6.029,0.007,0.035,-0.016,104.0,104.0,104.0,13.3,1505.2,354.9,-0.7,1.9,2471.508,13.29,0.035,11.3
2023-10-05T02:16:03,42.805,6.029,0.004,0.015,-0.014,102.0,104.0,103.0,13.4,1505.2,350.3,-0.8,1.8,2471.489,13.29,0.015,14.9
2023-10-05T02:19:03,42.805,6.029,0.003,0.026,0.003,104.0,104.0,102.0,13.4,1505.2,338.2,-0.8,1.8,2471.511,13.29,0.026,6.6
2023-10-05T02:22:03,42.805,6.029,-0.003,0.019,-0.012,104.0,104.0,102.0,13.4,1505.2,328.8,-0.8,1.9,2471.455,13.29,0.019,351.0
2023-10-05T02:25:03,42.805,6.029,-0.001,0.026,0.011,104.0,103.0,103.0,13.4,1505.2,335.1,-0.7,1.8,2471.469,13.29,0.026,357.8
2023-10-05T02:28:03,42.805,6.029,-0.002,0.027,-0.011,104.0,104.0,102.0,13.4,1505.2,340.4,-0.8,1.8,2471.468,13.29,0.027,355.8
2023-10-05T02:31:03,42.805,6.029,0.021,0.024,0.005,104.0,104.0,102.0,13.4,1505.2,352.8,-0.7,1.8,2471.469,13.29,0.031,41.2
2023-10-05T02:34:03,42.805,6.029,-0.02,0.029,0.006,103.0,104.0,103.0,13.4,1505.2,338.3,-0.7,1.8,2471.434,13.29,0.035,325.4
2023-10-05T02:37:03,42.805,6.029,-0.014,0.012,-0.018,104.0,104.0,101.0,13.3,1505.2,333.8,-0.8,1.8,2471.465,13.29,0.018,310.6
2023-10-05T02:40:03,42.805,6.029,-0.002,0.035,0.016,105.0,104.0,102.0,13.4,1505.2,344.4,-0.8,1.8,2471.447,13.29,0.035,356.7
2023-10-05T02:43:03,42.805,6.029,-0.013,0.041,-0.006,104.0,105.0,103.0,13.3,1505.2,344.6,-0.8,1.8,2471.472,13.29,0.043,342.4
2023-10-05T02:46:03,42.805,6.029,-0.028,0.021,-0.021,103.0,104.0,103.0,13.3,1505.2,341.8,-0.7,1.8,2471.445,13.29,0.035,306.9
2023-10-05T02:49:03,42.805,6.029,-0.013,0.02,0.003,103.0,104.0,102.0,13.4,1505.2,341.8,-0.8,1.8,2471.454,13.29,0.023,327.0
2023-10-05T02:52:03,42.805,6.029,-0.002,0.045,0.025,105.0,104.0,103.0,13.4,1505.2,340.2,-0.7,1.8,2471.457,13.29,0.045,357.5
2023-10-05T02:55:03,42.805,6.029,-0.016,0.021,-0.008,104.0,104.0,102.0,13.4,1505.2,328.2,-0.8,1.8,2471.441,13.29,0.026,322.7
2023-10-05T02:58:03,42.805,6.029,-0.008,0.008,-0.004,104.0,103.0,103.0,13.3,1505.2,339.0,-0.8,1.8,2471.467,13.29,0.011,315.0
2023-10-05T03:04:03,42.805,6.029,-0.046,0.022,-0.041,104.0,103.0,103.0,13.4,1505.2,329.5,-0.8,1.8,2471.468,13.29,0.05,295.6
2023-10-05T03:07:03,42.805,6.029,0.006,0.003,-0.048,104.0,103.0,103.0,13.3,1505.2,354.9,-0.8,1.8,2471.487,13.29,0.006,63.4
2023-10-05T03:10:03,42.805,6.029,-0.004,0.025,-0.008,104.0,104.0,101.0,13.4,1505.2,346.2,-0.7,1.8,2471.475,13.29,0.025,350.9
2023-10-05T03:13:03,42.805,6.029,0.0,0.02,-0.016,104.0,104.0,102.0,13.3,1505.2,347.9,-0.8,1.8,2471.49,13.29,0.02,0.0
2023-10-05T03:16:03,42.805,6.029,-0.012,0.009,-0.032,104.0,104.0,102.0,13.4,1505.2,330.8,-0.8,1.8,2471.444,13.29,0.015,306.9
2023-10-05T03:19:03,42.805,6.029,-0.01,0.021,-0.003,104.0,103.0,102.0,13.4,1505.2,340.3,-0.7,1.8,2471.48,13.29,0.023,334.5
2023-10-05T03:22:03,42.805,6.029,-0.003,0.0,0.008,104.0,104.0,102.0,13.4,1505.2,331.5,-0.8,1.8,2471.484,13.29,0.003,270.0
2023-10-05T03:25:03,42.805,6.029,-0.008,0.027,-0.008,105.0,105.0,101.0,13.3,1505.2,340.1,-0.8,1.8,2471.514,13.29,0.028,343.5
2023-10-05T03:28:03,42.805,6.029,-0.005,0.028,0.005,102.0,104.0,103.0,13.4,1505.2,341.5,-0.8,1.8,2471.433,13.29,0.028,349.9
2023-10-05T03:31:03,42.805,6.029,0.027,0.032,-0.006,102.0,103.0,102.0,13.4,1505.2,345.7,-0.8,1.8,2471.422,13.29,0.041,40.2
2023-10-05T03:34:03,42.805,6.029,-0.008,0.036,-0.001,104.0,104.0,102.0,13.4,1505.2,332.1,-0.8,1.8,2471.442,13.29,0.036,347.5
2023-10-05T03:37:03,42.805,6.029,-0.003,0.023,-0.016,104.0,104.0,102.0,13.3,1505.2,355.7,-0.8,1.8,2471.469,13.29,0.023,352.6
2023-10-05T03:40:03,42.805,6.029,-0.003,0.02,-0.005,103.0,104.0,102.0,13.4,1505.2,340.5,-0.8,1.8,2471.433,13.29,0.02,351.5
2023-10-05T03:43:03,42.805,6.029,0.002,0.013,-0.014,104.0,105.0,102.0,13.4,1505.2,347.8,-0.8,1.8,2471.493,13.29,0.013,8.7
2023-10-05T03:46:03,42.805,6.029,0.004,0.021,0.014,103.0,103.0,101.0,13.4,1505.2,331.4,-0.8,1.8,2471.44,13.29,0.021,10.8
2023-10-05T03:49:03,42.805,6.029,-0.006,0.027,-0.027,104.0,103.0,102.0,13.3,1505.2,336.6,-0.8,1.8,2471.418,13.29,0.027,347.5
2023-10-05T03:52:03,42.805,6.029,0.001,0.019,-0.041,103.0,104.0,102.0,13.3,1505.2,331.1,-0.8,1.8,2471.439,13.29,0.019,3.0
2023-10-05T03:55:03,42.805,6.029,-0.018,0.039,0.005,104.0,104.0,102.0,13.4,1505.2,335.5,-0.8,1.8,2471.45,13.29,0.042,335.2
2023-10-05T03:58:03,42.805,6.029,-0.019,0.031,-0.028,104.0,104.0,102.0,13.4,1505.2,335.6,-0.8,1.8,2471.376,13.29,0.036,328.5
2023-10-05T04:04:03,42.805,6.029,-0.027,0.029,0.005,103.0,104.0,102.0,13.3,1505.2,331.3,-0.8,1.8,2471.495,13.29,0.039,317.0
2023-10-05T04:07:03,42.805,6.029,0.015,0.007,-0.009,103.0,103.0,101.0,13.4,1505.2,354.9,-0.7,1.8,2471.46,13.29,0.016,65.0
2023-10-05T04:10:03,42.805,6.029,0.008,0.015,0.002,103.0,103.0,102.0,13.4,1505.2,340.9,-0.7,1.8,2471.464,13.29,0.017,28.1
2023-10-05T04:13:03,42.805,6.029,0.0,0.044,0.0,104.0,103.0,101.0,13.3,1505.2,343.4,-0.8,1.8,2471.456,13.29,0.044,0.0
2023-10-05T04:16:03,42.805,6.029,-0.007,0.019,-0.014,103.0,102.0,101.0,13.4,1505.2,347.3,-0.8,1.8,2471.458,13.29,0.02,339.8
2023-10-05T04:19:03,42.805,6.029,-0.004,0.036,-0.016,104.0,103.0,102.0,13.3,1505.2,358.0,-0.8,1.8,2471.429,13.29,0.036,353.7
2023-10-05T04:22:03,42.805,6.029,0.001,0.028,0.013,103.0,103.0,101.0,13.3,1505.2,350.3,-0.7,1.9,2471.415,13.29,0.028,2.0
2023-10-05T04:25:03,42.805,6.029,-0.006,0.024,-0.005,104.0,103.0,101.0,13.4,1505.2,335.6,-0.8,1.8,2471.457,13.29,0.024,346.0
2023-10-05T04:28:03,42.805,6.029,-0.009,0.033,-0.022,103.0,102.0,101.0,13.3,1505.2,343.3,-0.8,1.8,2471.445,13.29,0.034,344.7
2023-10-05T04:31:03,42.805,6.029,0.0,0.011,-0.001,104.0,103.0,102.0,13.4,1505.2,351.3,-0.8,1.8,2471.418,13.29,0.011,0.0
2023-10-05T04:34:03,42.805,6.029,-0.008,0.007,-0.049,103.0,104.0,101.0,13.4,1505.2,343.3,-0.7,1.8,2471.445,13.29,0.01,311.2
2023-10-05T04:37:03,42.805,6.029,0.006,0.02,-0.033,103.0,102.0,102.0,13.4,1505.2,356.9,-0.8,1.8,2471.445,13.29,0.02,16.7
2023-10-05T04:40:03,42.805,6.029,-0.009,0.03,-0.016,103.0,103.0,101.0,13.3,1505.2,345.7,-0.7,1.8,2471.431,13.29,0.031,343.3
2023-10-05T04:43:03,42.805,6.029,-0.001,0.026,-0.03,103.0,103.0,102.0,13.4,1505.2,355.8,-0.8,1.8,2471.445,13.29,0.026,357.8
2023-10-05T04:46:03,42.805,6.029,0.0,0.037,-0.012,103.0,103.0,102.0,13.4,1505.2,332.5,-0.8,1.8,2471.445,13.29,0.037,0.0
2023-10-05T04:49:03,42.805,6.029,-0.02,0.042,0.012,104.0,104.0,102.0,13.4,1505.2,336.8,-0.8,1.8,2471.422,13.29,0.046,334.5
2023-10-05T04:52:03,42.805,6.029,-0.026,0.027,-0.031,103.0,103.0,102.0,13.3,1505.2,333.8,-0.8,1.8,2471.448,13.29,0.037,316.1
2023-10-05T04:55:03,42.805,6.029,0.014,0.015,0.007,103.0,103.0,102.0,13.3,1505.2,356.8,-0.8,1.8,2471.452,13.29,0.02,43.0
2023-10-05T04:58:03,42.805,6.029,-0.004,0.065,0.009,104.0,104.0,102.0,13.4,1505.2,358.0,-0.8,1.8,2471.452,13.29,0.065,356.5
2023-10-05T05:04:03,42.805,6.029,0.001,0.019,-0.012,104.0,104.0,102.0,13.3,1505.2,339.7,-0.7,1.8,2471.463,13.29,0.019,3.0
2023-10-05T05:07:03,42.805,6.029,-0.001,0.018,-0.009,105.0,102.0,102.0,13.4,1505.2,354.7,-0.8,1.8,2471.501,13.29,0.018,356.8
2023-10-05T05:10:03,42.805,6.029,-0.01,0.008,-0.012,102.0,103.0,102.0,13.4,1505.2,334.3,-0.8,1.8,2471.453,13.29,0.012,308.7
2023-10-05T05:13:03,42.805,6.029,-0.004,0.032,0.002,103.0,102.0,101.0,13.4,1505.2,354.5,-0.7,1.8,2471.458,13.29,0.032,352.9
2023-10-05T05:16:03,42.805,6.029,-0.01,0.015,-0.018,101.0,102.0,101.0,13.4,1505.2,330.6,-0.7,1.9,2471.445,13.29,0.018,326.3
2023-10-05T05:19:03,42.805,6.029,0.0,0.033,-0.009,102.0,103.0,100.0,13.4,1505.2,349.3,-0.8,1.8,2471.472,13.29,0.033,0.0
2023-10-05T05:22:03,42.805,6.029,-0.019,0.024,-0.023,102.0,103.0,100.0,13.4,1505.2,349.6,-0.8,1.8,2471.42,13.29,0.03,321.6
2023-10-05T05:25:03,42.805,6.029,0.004,0.013,-0.037,102.0,102.0,100.0,13.3,1505.2,348.3,-0.8,1.8,2471.451,13.29,0.013,17.1
2023-10-05T05:28:03,42.805,6.029,-0.002,0.022,-0.007,102.0,102.0,100.0,13.4,1505.2,333.8,-0.8,1.8,2471.452,13.29,0.022,354.8
2023-10-05T05:31:03,42.805,6.029,-0.016,0.043,-0.001,101.0,103.0,100.0,13.4,1505.2,353.6,-0.7,1.8,2471.465,13.29,0.045,339.6
2023-10-05T05:34:03,42.805,6.029,-0.006,0.011,-0.043,103.0,102.0,100.0,13.3,1505.2,346.8,-0.8,1.8,2471.414,13.29,0.012,331.4
2023-10-05T05:37:03,42.805,6.029,0.003,0.036,-0.002,103.0,101.0,101.0,13.4,1505.2,338.5,-0.7,1.8,2471.445,13.29,0.036,4.8
2023-10-05T05:40:03,42.805,6.029,0.004,0.032,-0.008,102.0,102.0,101.0,13.4,1505.2,346.6,-0.8,1.8,2471.48,13.29,0.032,7.1
2023-10-05T05:43:03,42.805,6.029,-0.019,0.054,0.019,102.0,102.0,101.0,13.4,1505.2,344.2,-0.8,1.8,2471.468,13.29,0.057,340.6
2023-10-05T05:46:03,42.805,6.029,-0.003,0.032,-0.011,103.0,101.0,101.0,13.4,1505.2,336.6,-0.7,1.8,2471.459,13.29,0.032,354.6
2023-10-05T05:49:03,42.805,6.029,0.025,0.026,0.003,101.0,104.0,102.0,13.4,1505.2,345.3,-0.8,1.8,2471.449,13.29,0.036,43.9
2023-10-05T05:52:03,42.805,6.029,0.029,0.02,0.04,102.0,103.0,100.0,13.3,1505.2,348.5,-0.8,1.8,2471.442,13.29,0.035,55.4
2023-10-05T05:55:03,42.805,6.029,0.0,0.013,-0.03,102.0,102.0,100.0,13.3,1505.2,337.1,-0.8,1.8,2471.459,13.29,0.013,0.0
2023-10-05T05:58:03,42.805,6.029,0.017,0.033,0.001,102.0,103.0,100.0,13.3,1505.2,358.0,-0.8,1.8,2471.479,13.29,0.037,27.3
2023-10-05T06:04:03,42.805,6.029,0.008,0.053,0.014,102.0,102.0,101.0,13.3,1505.2,352.3,-0.8,1.8,2471.485,13.29,0.053,8.6
2023-10-05T06:07:03,42.805,6.029,-0.022,0.058,0.01,102.0,102.0,100.0,13.4,1505.2,347.2,-0.8,1.8,2471.457,13.29,0.062,339.2
2023-10-05T06:10:03,42.805,6.029,0.003,0.026,0.001,102.0,103.0,101.0,13.4,1505.2,355.3,-0.7,1.8,2471.469,13.29,0.026,6.6
2023-10-05T06:13:03,42.805,6.029,-0.02,0.025,-0.016,102.0,102.0,102.0,13.4,1505.2,329.3,-0.8,1.8,2471.5,13.29,0.032,321.3
2023-10-05T06:16:03,42.805,6.029,-0.004,0.011,-0.041,102.0,102.0,102.0,13.4,1505.2,336.4,-0.8,1.8,2471.423,13.29,0.011,340.0
2023-10-05T06:19:03,42.805,6.029,-0.011,0.014,-0.009,102.0,103.0,101.0,13.4,1505.2,331.2,-0.8,1.8,2471.432,13.29,0.017,321.8
2023-10-05T06:22:03,42.805,6.029,0.012,0.028,-0.014,101.0,103.0,101.0,13.3,1505.2,351.3,-0.8,1.8,2471.461,13.29,0.03,23.2
2023-10-05T06:25:03,42.805,6.029,-0.012,0.019,0.0,102.0,103.0,101.0,13.4,1505.2,335.6,-0.8,1.8,2471.441,13.29,0.022,327.7
2023-10-05T06:28:03,42.805,6.029,0.001,0.008,-0.007,102.0,103.0,101.0,13.4,1505.2,344.2,-0.8,1.8,2471.462,13.29,0.008,7.1
2023-10-05T06:31:03,42.805,6.029,-0.006,0.033,-0.014,104.0,103.0,101.0,13.3,1505.2,347.0,-0.7,1.8,2471.435,13.29,0.033,349.7
2023-10-05T06:34:03,42.805,6.029,-0.013,0.04,-0.019,101.0,102.0,102.0,13.3,1505.2,357.9,-0.8,1.8,2471.449,13.29,0.042,342.0
2023-10-05T06:37:03,42.805,6.029,0.013,0.036,0.026,103.0,103.0,101.0,13.3,1505.2,343.9,-0.8,1.8,2471.475,13.29,0.038,19.9
2023-10-05T06:40:03,42.805,6.029,-0.015,0.042,0.027,102.0,103.0,102.0,13.4,1505.2,336.3,-0.8,1.8,2471.454,13.29,0.044,340.4
2023-10-05T06:43:03,42.805,6.029,-0.011,0.023,0.021,103.0,102.0,101.0,13.4,1505.2,334.5,-0.7,1.8,2471.451,13.29,0.025,334.4
2023-10-05T06:46:03,42.805,6.029,-0.006,0.058,0.017,103.0,102.0,101.0,13.3,1505.2,337.6,-0.7,1.8,2471.481,13.29,0.058,354.1
2023-10-05T06:49:03,42.805,6.029,-0.009,0.031,-0.004,102.0,103.0,101.0,13.3,1505.2,340.4,-0.8,1.8,2471.446,13.29,0.032,343.8
2023-10-05T06:52:03,42.805,6.029,-0.017,0.042,0.013,102.0,103.0,101.0,13.4,1505.2,337.8,-0.7,1.8,2471.477,13.29,0.045,338.0
2023-10-05T06:55:03,42.805,6.029,0.007,0.027,-0.009,102.0,103.0,101.0,13.3,1505.2,344.2,-0.8,1.8,2471.455,13.29,0.027,14.5
2023-10-05T06:58:03,42.805,6.029,0.009,0.035,0.005,103.0,103.0,101.0,13.4,1505.2,336.1,-0.8,1.8,2471.477,13.29,0.036,14.4
2023-10-05T07:04:03,42.805,6.029,0.0,0.037,0.027,103.0,103.0,101.0,13.4,1505.2,329.1,-0.8,1.8,2471.545,13.29,0.037,0.0
2023-10-05T07:07:03,42.805,6.029,-0.008,0.019,-0.022,104.0,102.0,101.0,13.4,1505.2,350.2,-0.7,1.8,2471.501,13.29,0.02,337.2
2023-10-05T07:10:03,42.805,6.029,0.003,0.044,0.012,104.0,104.0,100.0,13.4,1505.2,337.5,-0.8,1.8,2471.519,13.29,0.044,3.9
2023-10-05T07:13:03,42.805,6.029,-0.02,0.026,-0.047,104.0,102.0,101.0,13.4,1505.2,336.8,-0.8,1.8,2471.51,13.29,0.032,322.4
2023-10-05T07:16:03,42.805,6.029,0.0,0.042,-0.01,102.0,103.0,101.0,13.4,1505.2,347.0,-0.8,1.9,2471.495,13.29,0.042,0.0
2023-10-05T07:19:03,42.805,6.029,0.028,0.018,0.004,102.0,101.0,100.0,13.3,1505.2,355.7,-0.8,1.8,2471.5,13.29,0.033,57.3
2023-10-05T07:22:03,42.805,6.029,0.001,0.032,-0.006,101.0,104.0,101.0,13.4,1505.2,347.6,-0.8,1.9,2471.473,13.29,0.032,1.8
2023-10-05T07:25:03,42.805,6.029,0.02,0.025,0.024,102.0,102.0,101.0,13.4,1505.2,337.6,-0.8,1.8,2471.486,13.29,0.032,38.7
2023-10-05T07:28:03,42.805,6.029,0.006,0.024,-0.006,102.0,104.0,101.0,13.3,1505.2,349.0,-0.8,1.8,2471.488,13.29,0.024,14.0
2023-10-05T07:31:03,42.805,6.029,-0.009,0.04,-0.012,103.0,104.0,100.0,13.4,1505.2,337.6,-0.8,1.8,2471.494,13.29,0.041,347.3
2023-10-05T07:34:03,42.805,6.029,0.01,0.019,-0.023,102.0,102.0,101.0,13.4,1505.2,347.0,-0.8,1.8,2471.489,13.29,0.021,27.8
2023-10-05T07:37:03,42.805,6.029,-0.011,0.041,0.021,103.0,102.0,101.0,13.4,1505.2,333.8,-0.8,1.8,2471.502,13.29,0.042,345.0
2023-10-05T07:40:03,42.805,6.029,0.012,0.023,-0.003,102.0,102.0,101.0,13.3,1505.2,354.8,-0.8,1.8,2471.483,13.29,0.025,27.6
2023-10-05T07:43:03,42.805,6.029,-0.019,0.05,0.014,102.0,103.0,101.0,13.4,1505.2,340.6,-0.8,1.8,2471.517,13.29,0.053,339.2
2023-10-05T07:46:03,42.805,6.029,0.017,0.039,-0.012,102.0,103.0,101.0,13.4,1505.2,356.8,-0.8,1.8,2471.495,13.29,0.042,23.5
2023-10-05T07:49:03,42.805,6.029,-0.002,0.055,-0.013,102.0,102.0,101.0,13.4,1505.2,347.0,-0.8,1.8,2471.514,13.29,0.055,357.9
2023-10-05T07:52:03,42.805,6.029,-0.013,0.02,0.021,102.0,103.0,101.0,13.3,1505.2,333.0,-0.8,1.8,2471.503,13.29,0.023,327.0
2023-10-05T07:55:03,42.805,6.029,0.009,0.02,-0.006,102.0,102.0,101.0,13.4,1505.2,341.5,-0.8,1.8,2471.498,13.29,0.021,24.2
2023-10-05T07:58:03,42.805,6.029,-0.007,0.046,0.0,102.0,102.0,101.0,13.4,1505.2,336.4,-0.8,1.8,2471.502,13.29,0.046,351.3
2023-10-05T08:04:03,42.805,6.029,0.003,0.028,0.016,101.0,102.0,101.0,13.4,1505.2,349.1,-0.7,1.8,2471.56,13.29,0.028,6.1
2023-10-05T08:07:03,42.805,6.029,0.021,0.027,0.001,102.0,102.0,100.0,13.4,1505.2,348.8,-0.8,1.8,2471.518,13.29,0.034,37.9
2023-10-05T08:10:03,42.805,6.029,0.002,0.046,0.017,102.0,102.0,101.0,13.3,1505.2,340.7,-0.8,1.8,2471.544,13.29,0.046,2.5
2023-10-05T08:13:03,42.805,6.029,0.001,0.042,0.008,102.0,103.0,102.0,13.4,1505.2,351.0,-0.7,1.9,2471.524,13.29,0.042,1.4
2023-10-05T08:16:03,42.805,6.029,0.012,0.001,-0.008,103.0,101.0,101.0,13.4,1505.2,336.1,-0.8,1.8,2471.548,13.29,0.012,85.2
2023-10-05T08:19:03,42.805,6.029,0.012,0.024,-0.025,102.0,102.0,101.0,13.4,1505.2,352.1,-0.8,1.8,2471.508,13.29,0.026,26.6
2023-10-05T08:22:03,42.805,6.029,0.007,0.033,-0.02,102.0,101.0,100.0,13.3,1505.2,335.7,-0.7,1.8,2471.528,13.29,0.033,12.0
2023-10-05T08:25:03,42.805,6.029,0.004,0.019,-0.045,102.0,103.0,100.0,13.4,1505.2,358.0,-0.8,1.8,2471.529,13.29,0.019,11.9
2023-10-05T08:28:03,42.805,6.029,0.0,0.041,-0.004,103.0,103.0,101.0,13.3,1505.2,341.5,-0.7,1.8,2471.549,13.29,0.041,0.0
2023-10-05T08:31:03,42.805,6.029,0.015,0.026,-0.003,104.0,103.0,100.0,13.4,1505.2,347.2,-0.8,1.8,2471.54,13.29,0.03,30.0
2023-10-05T08:34:03,42.805,6.029,-0.01,0.011,0.008,102.0,103.0,100.0,13.3,1505.2,340.5,-0.8,1.8,2471.521,13.29,0.014,317.7
2023-10-05T08:37:03,42.805,6.029,0.001,0.05,-0.015,101.0,102.0,100.0,13.3,1505.2,349.9,-0.8,1.8,2471.557,13.29,0.05,1.1
2023-10-05T08:40:03,42.805,6.029,0.003,0.052,0.024,103.0,104.0,101.0,13.4,1505.2,329.4,-0.8,1.8,2471.546,13.29,0.052,3.3
2023-10-05T08:43:03,42.805,6.029,-0.023,0.052,0.004,102.0,103.0,101.0,13.4,1505.2,333.4,-0.8,1.8,2471.508,13.29,0.056,336.1
2023-10-05T08:46:03,42.805,6.029,-0.005,0.03,-0.023,102.0,102.0,101.0,13.4,1505.2,335.1,-0.8,1.8,2471.562,13.29,0.03,350.5
2023-10-05T08:49:03,42.805,6.029,0.015,0.023,0.002,103.0,103.0,101.0,13.3,1505.2,338.8,-0.7,1.8,2471.53,13.29,0.027,33.1
2023-10-05T08:52:03,42.805,6.029,-0.004,0.052,0.014,101.0,103.0,100.0,13.3,1505.2,335.5,-0.8,1.8,2471.537,13.29,0.052,355.6
2023-10-05T08:55:03,42.805,6.029,0.01,0.038,0.011,102.0,102.0,101.0,13.3,1505.2,336.2,-0.7,1.8,2471.54,13.29,0.039,14.7
2023-10-05T08:58:03,42.805,6.029,0.005,0.041,0.005,101.0,104.0,100.0,13.4,1505.2,356.8,-0.8,1.8,2471.588,13.29,0.041,7.0
2023-10-05T09:04:03,42.805,6.029,-0.007,0.031,-0.015,102.0,102.0,101.0,13.4,1505.2,334.6,-0.8,1.8,2471.597,13.29,0.031,347.3
2023-10-05T09:07:03,42.805,6.029,0.011,0.036,0.022,102.0,104.0,101.0,13.4,1505.2,345.3,-0.8,1.8,2471.569,13.29,0.037,17.0
2023-10-05T09:10:03,42.805,6.029,0.01,0.026,-0.001,102.0,102.0,101.0,13.4,1505.2,341.9,-0.8,1.8,2471.586,13.29,0.027,21.0
2023-10-05T09:13:03,42.805,6.029,-0.01,0.042,0.008,102.0,104.0,102.0,13.4,1505.2,334.7,-0.8,1.8,2471.61,13.29,0.043,346.6
2023-10-05T09:16:03,42.805,6.029,0.012,0.037,0.0,102.0,105.0,101.0,13.4,1505.2,335.6,-0.8,1.9,2471.569,13.29,0.038,18.0
2023-10-05T09:19:03,42.805,6.029,0.002,0.024,0.001,102.0,102.0,102.0,13.4,1505.2,339.1,-0.7,1.8,2471.552,13.29,0.024,4.8
2023-10-05T09:22:03,42.805,6.029,0.009,0.028,0.017,100.0,106.0,101.0,13.3,1505.2,342.1,-0.8,1.8,2471.591,13.29,0.029,17.8
2023-10-05T09:25:03,42.805,6.029,-0.011,0.054,0.001,102.0,104.0,102.0,13.3,1505.2,343.6,-0.8,1.8,2471.608,13.29,0.055,348.5
2023-10-05T09:28:03,42.805,6.029,-0.006,0.01,-0.001,103.0,105.0,101.0,13.4,1505.2,337.4,-0.8,1.8,2471.524,13.29,0.011,329.0
2023-10-05T09:31:03,42.805,6.029,0.009,0.035,0.003,102.0,103.0,99.0,13.4,1505.2,349.6,-0.7,1.8,2471.581,13.29,0.036,14.4
2023-10-05T09:34:03,42.805,6.029,0.0,0.066,0.051,102.0,104.0,101.0,13.4,1505.2,330.7,-0.8,1.8,2471.568,13.29,0.065,0.0
2023-10-05T09:37:03,42.805,6.029,0.021,0.014,-0.016,102.0,104.0,102.0,13.3,1505.2,341.9,-0.8,1.8,2471.606,13.29,0.025,56.3
2023-10-05T09:40:03,42.805,6.029,-0.011,0.027,0.009,103.0,103.0,101.0,13.4,1505.2,334.7,-0.7,1.8,2471.578,13.29,0.029,337.8
2023-10-05T09:43:03,42.805,6.029,0.016,0.017,-0.026,102.0,103.0,101.0,13.3,1505.2,333.8,-0.8,1.8,2471.571,13.29,0.023,43.3
2023-10-05T09:46:03,42.805,6.029,0.007,0.029,0.002,104.0,103.0,101.0,13.4,1505.2,338.8,-0.8,1.8,2471.619,13.29,0.029,13.6
2023-10-05T09:49:03,42.805,6.029,0.011,0.012,0.0,102.0,103.0,101.0,13.4,1505.2,346.6,-0.8,1.8,2471.593,13.29,0.016,42.5
2023-10-05T09:52:03,42.805,6.029,0.009,0.017,-0.013,103.0,103.0,101.0,13.3,1505.2,357.9,-0.8,1.8,2471.586,13.29,0.019,27.9
2023-10-05T09:55:03,42.805,6.029,0.025,0.024,-0.009,103.0,103.0,100.0,13.4,1505.2,349.7,-0.8,1.8,2471.579,13.29,0.034,46.2
2023-10-05T09:58:03,42.805,6.029,0.007,0.018,-0.008,103.0,102.0,102.0,13.3,1505.2,338.0,-0.7,1.8,2471.606,13.29,0.019,21.2
2023-10-05T10:04:03,42.805,6.029,0.012,0.006,-0.003,103.0,103.0,101.0,13.4,1505.2,348.2,-0.8,1.8,2471.648,13.29,0.013,63.4